{"data":{"norad_id":59918,"epoch":"2026-05-25T03:52:40.716768Z","epoch_age_seconds":64308,"freshness":"FRESH","line1":"1 59918U 24105B   26145.16158237  .00004899  00000+0  23843-3 0  9997","line2":"2 59918  97.5833 160.5320 0010895 333.3590  26.7083 15.18812729109555","mean_motion":15.18812729,"eccentricity":0.0010895,"inclination_deg":97.5833,"raan_deg":160.532,"arg_perigee_deg":333.359,"mean_anomaly_deg":26.7083,"bstar":0.00023843,"rev_number":10955,"period_min":94.810898835968,"perigee_km":501.92366060162,"apogee_km":516.93166400078,"semimajor_km":6887.5646623012,"source":"CELESTRAK","updated_at":"2026-05-25T13:38:01.747744Z"}}